Location: Unspecified
(60.0628°N, 0.0000°E)
Time: 07:07:36
(UTC+00:00)

CZ-6A DEB - Visible Passes

Search period start: 04 April 2026 00:00
Search period end: 14 April 2026 00:00
Orbit: 587 x 756 km, 89.0° (Epoch: 29 March)

Date Brightness Start Highest point End Pass type
(mag) Time Alt. Az. Time Alt. Az. Time Alt. Az.
4 Apr ? 19:49:09 10° NW 19:50:35 12° WNW 19:52:01 10° W visible
5 Apr ? 03:46:33 10° ENE 03:47:40 11° ENE 03:48:47 10° NE visible
6 Apr ? 04:17:29 10° ESE 04:20:38 19° ENE 04:23:43 10° NNE visible
8 Apr ? 03:47:28 10° E 03:49:36 13° ENE 03:51:43 10° NE visible
11 Apr ? 03:48:40 10° ESE 03:51:25 17° ENE 03:54:07 10° NNE visible
13 Apr ? 03:18:48 10° E 03:20:14 12° ENE 03:21:40 10° NE visible
